Overview Statistics Trail Chart Weather Telemetry Raw packets
 

This is the latest recevied weather packets stored in our database for station/object KB9YVI-11. If no packets are shown the sender has not sent any weather packets the latest 10 day(s).

<< 38 39 40 41 42 43 44 >>
Time Temp. Humidity Pressure Rain* Wind** Luminosity Snow
1788139336 23.89° C 100% 0 hPa 0 mm - - -
1788139025 23.89° C 100% 0 hPa 0 mm - - -
1788136626 26.11° C 99% 0 hPa 0 mm - - -
1788136326 26.11° C 99% 0 hPa 0 mm - - -
1788135724 26.67° C 97% 0 hPa 0 mm - - -
1788134526 28.33° C 92% 0 hPa 0 mm - - -
1788134226 28.89° C 90% 0 hPa 0 mm - - -
1788133926 28.89° C 88% 0 hPa 0 mm - - -
1788133626 29.44° C 86% 0 hPa 0 mm - - -
1788133026 30° C 83% 0 hPa 0 mm - - -
1788132726 30° C 82% 0 hPa 0 mm - - -
1788132426 30.56° C 81% 0 hPa 0 mm - - -
1788132125 30.56° C 80% 0 hPa 0 mm - - -
1788130927 31.67° C 78% 0 hPa 0 mm - - -
1788130326 31.11° C 78% 0 hPa 0 mm - - -
1788128525 31.67° C 74% 0 hPa 0 mm - - -
1788128226 31.67° C 75% 0 hPa 0 mm - - -
1788127926 31.67° C 74% 0 hPa 0 mm - - -
1788126128 32.22° C 74% 0 hPa 0 mm - - -
1788124925 32.22° C 72% 0 hPa 0 mm - - -
1788124028 32.22° C 73% 0 hPa 0 mm - - -
1788123426 32.22° C 75% 0 hPa 0 mm - - -
1788123126 32.22° C 76% 0 hPa 0 mm - - -
1788122828 32.22° C 74% 0 hPa 0 mm - - -
1788121626 32.22° C 73% 0 hPa 0 mm - - -

* Rain latest hour (hover to see other rain measurements)
** Current wind speed in m/s (hover to see current wind gust speed)